• In Uzbekistan
  • List of Countries
  • For 7 days
  • Water Temperature
  • Satellite Maps
  • Weather Map
  • Weather Widgets
  • user-avatar
    Login

    Hourly Weather El Guna

    Today, 21 November, Tuesday

    Time Temperature Precipitation Wind Pressure Humidity
    00:00 +18°C° 0 mm 4 mps 733 mmHg 45%
    01:00 +17°C° 0 mm 4 mps 733 mmHg 47%
    02:00 +17°C° 0 mm 4 mps 733 mmHg 47%
    03:00 +17°C° 0 mm 4 mps 733 mmHg 49%
    04:00 +15°C° 0 mm 4 mps 734 mmHg 50%
    05:00 +15°C° 0 mm 4 mps 734 mmHg 52%
    06:00 +17°C° 0 mm 4 mps 734 mmHg 50%
    07:00 +17°C° 0 mm 5 mps 735 mmHg 49%
    08:00 +19°C° 0 mm 5 mps 735 mmHg 48%
    09:00 +20°C° 0 mm 5 mps 735 mmHg 43%
    10:00 +21°C° 0 mm 5 mps 735 mmHg 39%
    11:00 +23°C° 0 mm 6 mps 735 mmHg 35%
    12:00 +23°C° 0 mm 6 mps 735 mmHg 33%
    13:00 +24°C° 0 mm 6 mps 734 mmHg 30%
    14:00 +24°C° 0 mm 6 mps 734 mmHg 28%
    15:00 +23°C° 0 mm 6 mps 734 mmHg 31%
    16:00 +22°C° 0 mm 6 mps 733 mmHg 34%
    17:00 +21°C° 0 mm 6 mps 733 mmHg 38%
    18:00 +20°C° 0 mm 6 mps 734 mmHg 42%
    19:00 +20°C° 0 mm 5 mps 734 mmHg 47%
    20:00 +19°C° 0 mm 5 mps 734 mmHg 51%
    21:00 +17°C° 0 mm 5 mps 734 mmHg 54%
    22:00 +18°C° 0 mm 4 mps 734 mmHg 57%
    23:00 +17°C° 0 mm 4 mps 735 mmHg 59%

    Tomorrow, 22 November, Wednesday

    Time Temperature Precipitation Wind Pressure Humidity
    00:00 +16°C° 0 mm 5 mps 734 mmHg 63%
    01:00 +15°C° 0 mm 5 mps 734 mmHg 67%
    02:00 +15°C° 0 mm 5 mps 734 mmHg 71%
    03:00 +14°C° 0 mm 5 mps 734 mmHg 75%
    04:00 +14°C° 0 mm 5 mps 734 mmHg 78%
    05:00 +13°C° 0 mm 5 mps 734 mmHg 81%
    06:00 +14°C° 0 mm 5 mps 735 mmHg 76%
    07:00 +14°C° 0 mm 5 mps 735 mmHg 72%
    08:00 +15°C° 0 mm 6 mps 735 mmHg 67%
    09:00 +16°C° 0 mm 6 mps 736 mmHg 58%
    10:00 +19°C° 0 mm 6 mps 736 mmHg 48%
    11:00 +20°C° 0 mm 6 mps 736 mmHg 39%
    12:00 +20°C° 0 mm 6 mps 735 mmHg 37%
    13:00 +21°C° 0 mm 7 mps 735 mmHg 35%
    14:00 +21°C° 0 mm 7 mps 735 mmHg 33%
    15:00 +20°C° 0 mm 7 mps 735 mmHg 37%
    16:00 +18°C° 0 mm 7 mps 735 mmHg 42%
    17:00 +17°C° 0 mm 6 mps 735 mmHg 46%
    18:00 +16°C° 0 mm 6 mps 735 mmHg 50%
    19:00 +15°C° 0 mm 6 mps 735 mmHg 55%
    20:00 +14°C° 0 mm 5 mps 735 mmHg 59%
    21:00 +14°C° 0 mm 5 mps 736 mmHg 61%
    22:00 +14°C° 0 mm 5 mps 736 mmHg 63%
    23:00 +13°C° 0 mm 5 mps 736 mmHg 65%

    Day after tomorrow, 23 November, Thursday

    Time Temperature Precipitation Wind Pressure Humidity
    00:00 +13°C° 0 mm 5 mps 736 mmHg 67%
    01:00 +12°C° 0 mm 5 mps 736 mmHg 69%
    02:00 +12°C° 0 mm 5 mps 735 mmHg 71%
    03:00 +12°C° 0 mm 4 mps 735 mmHg 73%
    04:00 +11°C° 0 mm 4 mps 735 mmHg 75%
    05:00 +11°C° 0 mm 4 mps 735 mmHg 76%
    06:00 +12°C° 0 mm 4 mps 735 mmHg 71%
    07:00 +13°C° 0 mm 5 mps 736 mmHg 66%
    08:00 +14°C° 0 mm 5 mps 736 mmHg 61%
    09:00 +16°C° 0 mm 5 mps 737 mmHg 53%
    10:00 +17°C° 0 mm 5 mps 737 mmHg 45%
    11:00 +20°C° 0 mm 5 mps 737 mmHg 38%
    12:00 +20°C° 0 mm 6 mps 736 mmHg 36%
    13:00 +21°C° 0 mm 6 mps 736 mmHg 35%
    14:00 +21°C° 0 mm 6 mps 735 mmHg 33%
    15:00 +20°C° 0 mm 6 mps 735 mmHg 38%
    16:00 +19°C° 0 mm 5 mps 735 mmHg 43%
    17:00 +17°C° 0 mm 5 mps 735 mmHg 47%
    18:00 +16°C° 0 mm 5 mps 735 mmHg 51%
    19:00 +15°C° 0 mm 5 mps 736 mmHg 54%
    20:00 +14°C° 0 mm 4 mps 736 mmHg 57%
    21:00 +14°C° 0 mm 4 mps 736 mmHg 59%
    22:00 +14°C° 0 mm 4 mps 736 mmHg 60%
    23:00 +13°C° 0 mm 4 mps 736 mmHg 62%

    24 November, Friday

    Time Temperature Precipitation Wind Pressure Humidity
    00:00 +13°C° 0 mm 4 mps 736 mmHg 64%
    01:00 +13°C° 0 mm 4 mps 735 mmHg 67%
    02:00 +12°C° 0 mm 3 mps 735 mmHg 69%
    03:00 +12°C° 0 mm 3 mps 735 mmHg 70%
    04:00 +12°C° 0 mm 3 mps 735 mmHg 72%
    05:00 +11°C° 0 mm 3 mps 735 mmHg 73%
    06:00 +12°C° 0 mm 3 mps 735 mmHg 68%
    07:00 +13°C° 0 mm 3 mps 736 mmHg 62%
    08:00 +14°C° 0 mm 3 mps 736 mmHg 57%
    09:00 +17°C° 0 mm 4 mps 736 mmHg 50%
    10:00 +19°C° 0 mm 4 mps 736 mmHg 42%
    11:00 +20°C° 0 mm 4 mps 736 mmHg 35%
    12:00 +21°C° 0 mm 4 mps 736 mmHg 34%
    13:00 +22°C° 0 mm 4 mps 735 mmHg 32%
    14:00 +22°C° 0 mm 4 mps 735 mmHg 30%
    15:00 +21°C° 0 mm 4 mps 735 mmHg 35%
    16:00 +20°C° 0 mm 4 mps 735 mmHg 39%
    17:00 +19°C° 0 mm 3 mps 735 mmHg 43%
    18:00 +18°C° 0 mm 3 mps 735 mmHg 46%
    19:00 +17°C° 0 mm 3 mps 736 mmHg 49%
    20:00 +16°C° 0 mm 3 mps 736 mmHg 53%
    21:00 +16°C° 0 mm 3 mps 736 mmHg 52%
    22:00 +15°C° 0 mm 2 mps 736 mmHg 52%
    23:00 +15°C° 0 mm 2 mps 736 mmHg 51%

    25 November, Saturday

    Time Temperature Precipitation Wind Pressure Humidity
    00:00 +15°C° 0 mm 2 mps 736 mmHg 51%
    01:00 +14°C° 0 mm 3 mps 735 mmHg 51%
    02:00 +13°C° 0 mm 3 mps 735 mmHg 51%
    03:00 +13°C° 0 mm 3 mps 735 mmHg 53%
    04:00 +14°C° 0 mm 2 mps 735 mmHg 55%
    05:00 +13°C° 0 mm 2 mps 735 mmHg 57%
    06:00 +14°C° 0 mm 3 mps 735 mmHg 53%
    07:00 +16°C° 0 mm 3 mps 736 mmHg 48%
    08:00 +18°C° 0 mm 3 mps 736 mmHg 44%
    09:00 +19°C° 0 mm 3 mps 736 mmHg 39%
    10:00 +21°C° 0 mm 3 mps 736 mmHg 35%
    11:00 +23°C° 0 mm 2 mps 736 mmHg 30%
    12:00 +24°C° 0 mm 3 mps 735 mmHg 28%
    13:00 +24°C° 0 mm 3 mps 735 mmHg 27%
    14:00 +25°C° 0 mm 3 mps 735 mmHg 25%
    15:00 +24°C° 0 mm 3 mps 735 mmHg 29%
    16:00 +21°C° 0 mm 3 mps 735 mmHg 33%
    17:00 +20°C° 0 mm 3 mps 734 mmHg 37%
    18:00 +19°C° 0 mm 3 mps 735 mmHg 41%
    19:00 +18°C° 0 mm 3 mps 735 mmHg 45%
    20:00 +17°C° 0 mm 2 mps 735 mmHg 48%
    21:00 +17°C° 0 mm 2 mps 735 mmHg 48%
    22:00 +17°C° 0 mm 2 mps 735 mmHg 47%
    23:00 +16°C° 0 mm 2 mps 735 mmHg 47%

    26 November, Sunday

    Time Temperature Precipitation Wind Pressure Humidity
    00:00 +16°C° 0 mm 2 mps 735 mmHg 46%
    01:00 +16°C° 0 mm 3 mps 734 mmHg 44%
    02:00 +14°C° 0 mm 3 mps 734 mmHg 43%
    03:00 +14°C° 0 mm 3 mps 734 mmHg 43%
    04:00 +14°C° 0 mm 3 mps 734 mmHg 43%
    05:00 +13°C° 0 mm 3 mps 734 mmHg 42%
    06:00 +16°C° 0 mm 3 mps 735 mmHg 39%
    07:00 +17°C° 0 mm 3 mps 735 mmHg 35%
    08:00 +19°C° 0 mm 3 mps 736 mmHg 31%
    09:00 +20°C° 0 mm 3 mps 736 mmHg 29%
    10:00 +21°C° 0 mm 3 mps 736 mmHg 27%
    11:00 +24°C° 0 mm 3 mps 736 mmHg 24%
    12:00 +23°C° 0 mm 4 mps 735 mmHg 23%
    13:00 +25°C° 0 mm 4 mps 735 mmHg 23%
    14:00 +26°C° 0 mm 4 mps 735 mmHg 22%
    15:00 +23°C° 0 mm 5 mps 735 mmHg 27%
    16:00 +22°C° 0 mm 5 mps 735 mmHg 33%
    17:00 +21°C° 0 mm 5 mps 735 mmHg 38%
    18:00 +20°C° 0 mm 4 mps 735 mmHg 44%
    19:00 +19°C° 0 mm 4 mps 735 mmHg 49%
    20:00 +18°C° 0 mm 3 mps 736 mmHg 54%
    21:00 +17°C° 0 mm 3 mps 735 mmHg 55%
    22:00 +17°C° 0 mm 3 mps 735 mmHg 56%
    23:00 +16°C° 0 mm 3 mps 735 mmHg 57%
    Show more